Location: Le Rocchette
(44.3500°N, 7.8333°E)
Time: 10:11:26
(UTC+00:00)

Cosmos 2219 Rocket - Pass Details

Date: 17 November 2019
Orbit: 827 x 847 km, 71.0° (Epoch: 12 December)

Event Time Altitude Azimuth Distance (km) Brightness Sun altitude
Rises 05:39:56 0° 338° (NNW) 3,403 5.0 -8.6°
Reaches altitude 10° 05:42:29 10° 345° (NNW) 2,467 4.3 -8.1°
Maximum altitude 05:47:56 46° 58° (ENE) 1,121 3.2 -7.2°
Drops below altitude 10° 05:53:21 10° 132° (SE) 2,464 6.0 -6.3°
Sets 05:55:54 0° 138° (SE) 3,397 6.6 -5.9°
